{"data":{"norad_id":37826,"epoch":"2026-09-20T04:24:58.026816Z","epoch_age_seconds":41738,"freshness":"FRESH","line1":"1 37826U 11054A   26263.18400494 -.00000246  00000+0  00000+0 0  9997","line2":"2 37826   0.0163 263.7235 0002672 271.1824 173.4334  1.00272914 50824","mean_motion":1.00272914,"eccentricity":0.0002672,"inclination_deg":0.0163,"raan_deg":263.7235,"arg_perigee_deg":271.1824,"mean_anomaly_deg":173.4334,"bstar":0,"rev_number":5082,"period_min":1436.0807346239,"perigee_km":35775.012132664,"apogee_km":35797.544796289,"semimajor_km":42164.415464476,"source":"CELESTRAK","updated_at":"2026-09-20T09:00:35.640267Z"}}